Wind_Speed
26 25 25 25 25 25 26 25 25 25 26 26 26 25 24 23 23 24 24 24 25 25 25 25 26 26 26 27 27 26 27 27 27 27 27 27 27 27 27 27 27 26 26
26 26 26 26 25 25 25 26 25 25 25 25 25 24 24 23 23 24 24 24 24 24 25 26 26 25 26 27 27 27 27 27 27 28 28 28 28 27 27 27 27 27 27
27 26 26 26 26 26 26 25 26 25 25 25 26 24 23 24 24 24 24 25 25 25 26 26 27 26 26 27 27 27 28 27 27 28 28 27 28 28 28 28 28 28 28
25 25 25 25 26 26 26 25 24 25 25 26 24 24 25 26 25 25 25 25 26 26 26 27 27 27 27 26 27 28 28 27 27 27 27 28 27 28 28 27 28 28 28
24 24 25 26 26 26 26 26 25 25 25 25 25 25 26 26 26 26 26 26 27 27 27 28 27 27 27 27 28 28 27 26 26 27 27 28 28 27 28 28 28 28 28
24 25 25 26 26 27 26 25 25 25 25 25 27 27 27 27 27 27 27 28 28 28 28 28 27 28 28 28 27 27 27 27 27 27 27 27 27 28 28 28 27 27 27
25 24 25 26 26 27 26 26 26 26 26 26 26 27 28 28 28 27 27 28 29 29 28 28 28 27 27 26 27 26 26 27 27 27 28 28 28 27 28 28 28 28 28
23 23 24 25 24 25 25 25 26 27 26 26 26 27 28 28 27 28 28 29 28 28 28 28 28 28 28 27 26 26 26 26 27 27 27 28 27 27 27 28 28 28 28
21 22 22 23 23 24 25 25 26 27 27 27 27 28 28 27 27 28 28 28 28 28 29 29 29 28 28 27 27 26 26 26 26 26 26 27 27 26 26 26 27 27 26
21 21 22 23 24 25 26 27 26 27 27 27 27 27 27 27 26 26 27 28 28 28 29 28 28 27 27 26 26 26 26 26 26 25 25 26 26 25 24 25 26 26 26
21 21 22 23 24 25 26 26 26 27 27 27 27 27 26 27 27 27 27 27 27 27 27 27 27 27 26 26 25 25 25 25 25 25 25 25 25 25 25 25 25 26 26
19 20 21 22 23 24 25 26 27 27 28 28 28 28 27 27 26 26 26 26 26 26 26 26 26 25 25 25 24 24 24 24 23 24 24 23 23 23 23 23 23 24 24
18 19 19 20 21 23 24 25 26 27 27 27 26 25 25 25 24 24 25 25 25 25 24 24 24 24 24 23 23 23 23 23 23 23 23 22 22 21 21 22 22 22 22
17 18 18 19 20 21 22 23 24 23 24 23 23 24 24 24 24 24 24 24 24 23 23 23 23 23 23 22 22 22 22 22 22 21 21 21 21 21 21 21 21 21 22
17 17 18 19 19 19 20 21 20 21 20 21 21 22 22 23 24 24 24 24 23 23 23 23 22 22 22 22 22 21 21 21 20 20 20 20 20 20 21 21 21 21 21
17 17 18 18 18 18 18 18 19 18 18 19 19 20 20 21 22 22 22 22 22 22 22 22 22 21 21 21 21 20 20 19 19 19 19 19 19 20 20 21 21 20 20
17 17 18 17 17 17 17 16 16 17 17 17 18 18 18 19 19 20 20 20 21 21 21 22 21 21 21 20 20 19 19 18 17 18 18 19 19 19 19 20 20 20 20
17 17 16 15 15 15 15 15 15 15 15 16 17 17 17 17 17 18 18 19 19 20 19 19 20 20 20 19 17 17 17 17 17 17 17 17 17 17 17 18 18 18 18
16 15 14 14 14 14 14 14 14 14 15 16 16 16 16 16 16 17 16 17 17 17 17 17 17 17 17 17 16 16 16 16 15 15 15 14 14 15 15 16 16 15 16
14 14 14 13 13 13 13 13 13 13 13 14 14 14 13 14 14 15 15 14 14 14 14 14 14 15 15 15 15 15 15 14 14 14 13 13 14 14 14 13 13 14 14
12 12 12 12 12 12 12 12 12 12 12 12 12 12 12 12 12 13 13 12 12 12 13 12 12 13 13 13 13 13 13 12 12 12 12 11 12 12 11 11 12 12 12
11 11 11 11 11 11 10 10 9 9 9 9 10 10 10 11 11 11 11 11 10 10 10 10 11 11 11 10 11 11 11 11 10 10 10 9 9 9 9 9 10 10 10
10 10 10 9 9 9 9 8 7 7 8 8 8 9 9 10 10 10 10 10 9 9 9 9 9 9 9 9 8 9 9 9 9 9 9 8 8 8 8 8 8 8 8
9 9 8 8 8 8 9 7 7 7 7 7 7 7 7 8 8 8 8 8 8 8 7 7 7 7 7 7 7 7 7 8 7 7 7 7 6 6 6 6 6 6 7
8 8 7 7 7 8 7 6 6 6 6 6 7 7 7 8 8 8 8 7 7 7 7 6 6 5 5 5 5 4 4 5 6 6 6 6 5 5 5 5 5 6 6
6 5 5 6 6 5 5 5 6 6 6 6 6 6 7 7 7 7 7 7 7 6 6 5 4 4 5 4 4 3 2 2 3 4 4 5 5 5 5 5 5 5 5
Wind_Direction
279 280 282 283 283 283 280 276 274 275 274 271 270 267 266 261 263 266 268 272 274 275 276 278 279 280 279 279 278 277 275 274 271 270 269 269 269 268 267 266 263 261 261
278 279 280 280 280 281 282 277 274 275 275 273 269 267 266 267 268 269 272 273 274 277 279 279 279 280 280 280 279 277 275 274 271 269 268 270 269 270 268 265 262 262 261
276 277 277 277 278 279 280 276 272 276 275 272 270 269 270 269 270 271 272 271 272 276 278 279 279 279 279 279 279 278 276 274 270 269 269 270 270 271 269 266 264 263 261
275 277 277 277 276 277 277 273 273 275 277 276 271 267 269 269 270 272 272 272 272 275 278 279 279 279 278 278 278 279 276 273 270 268 268 269 268 269 267 266 265 263 261
275 277 277 276 275 277 276 272 274 277 279 275 270 267 268 268 270 272 273 272 273 276 277 278 280 279 279 279 279 278 275 271 269 267 268 269 268 267 266 266 264 262 261
275 277 277 276 276 276 273 271 275 277 277 276 272 270 270 271 272 272 272 273 275 276 277 278 279 280 281 280 279 278 274 270 269 268 268 268 268 266 266 265 263 261 261
276 277 275 275 274 273 272 274 275 278 278 277 275 274 272 272 273 272 273 275 276 276 277 278 279 280 282 281 280 278 276 272 270 269 268 267 267 265 263 262 262 261 260
275 275 274 273 272 271 271 274 276 277 278 278 276 274 272 273 275 273 272 275 276 277 278 279 279 279 281 280 279 277 275 273 271 270 269 266 266 265 263 261 259 258 258
273 273 274 273 273 272 273 275 276 277 278 278 278 274 272 274 274 273 272 273 276 278 279 280 280 280 281 280 279 277 274 273 271 270 269 267 265 264 262 259 257 256 258
273 272 274 272 272 274 275 276 277 278 278 278 279 277 276 275 274 275 275 275 276 277 278 279 279 280 281 281 279 277 274 272 270 268 267 267 265 262 259 257 256 255 256
279 276 275 274 273 274 275 275 277 279 278 277 280 278 278 279 275 275 276 276 277 278 280 278 279 280 281 280 279 277 275 273 271 268 268 267 264 260 258 257 256 256 256
281 277 276 276 274 275 275 277 279 279 278 277 278 277 277 278 276 276 277 277 278 280 280 279 279 279 280 280 279 276 275 273 272 269 268 266 262 260 257 257 256 255 255
286 285 282 281 278 278 278 279 280 280 278 279 280 279 279 276 275 277 278 276 277 279 280 279 279 280 281 280 278 277 275 274 274 272 270 266 262 259 259 259 257 256 255
290 290 288 284 282 280 281 283 284 282 280 281 282 279 279 277 276 277 277 276 276 278 281 279 279 280 280 280 279 276 274 274 273 272 270 267 265 261 260 260 258 256 256
293 292 289 287 285 282 282 284 286 284 282 284 284 283 283 279 277 278 277 278 278 279 280 279 278 279 280 280 278 275 273 273 272 270 268 267 266 263 261 260 259 256 254
296 295 293 292 290 289 288 288 288 288 285 284 284 286 286 283 282 281 281 280 280 281 281 279 277 276 277 279 279 276 274 271 270 268 267 267 267 265 262 259 259 258 256
295 295 295 295 295 295 293 289 289 291 290 286 286 289 290 286 283 284 283 283 282 281 280 279 277 275 276 278 278 275 273 272 271 268 267 268 267 265 262 260 259 258 257
297 297 296 295 296 298 299 298 298 297 294 294 292 292 293 292 290 289 287 285 283 281 281 280 277 275 276 277 276 274 275 274 272 268 267 267 266 264 263 263 262 259 256
299 298 297 297 297 299 302 301 301 299 297 297 297 296 296 295 296 295 293 291 288 285 284 282 279 277 275 275 274 274 276 275 272 269 268 268 265 263 262 263 260 255 251
300 299 298 297 298 300 302 301 302 302 301 299 298 300 299 298 299 299 297 295 293 289 287 285 280 278 277 277 274 273 275 275 270 268 267 265 264 265 264 262 259 252 249
302 302 302 300 302 305 307 306 306 303 300 301 302 301 301 301 301 303 303 300 297 293 290 286 284 283 280 280 276 274 274 275 269 262 260 263 265 263 259 258 256 251 250
305 307 311 309 308 310 311 310 310 309 305 303 303 305 308 309 309 308 310 311 307 300 296 294 292 289 284 281 279 275 275 274 268 260 258 259 260 261 256 254 252 251 251
304 306 311 312 314 319 318 316 318 320 321 317 313 311 313 316 316 318 319 317 315 312 307 303 302 299 292 288 287 278 275 269 261 255 257 257 260 259 254 254 253 249 248
305 307 309 313 319 323 325 328 328 327 328 326 325 323 327 329 329 327 325 324 322 321 318 314 310 307 300 298 297 291 275 261 258 257 253 254 254 256 251 251 247 244 244
300 306 310 316 325 328 330 338 340 337 338 338 341 342 342 341 340 341 341 336 331 328 327 325 319 311 307 306 309 307 286 266 261 253 247 250 251 251 248 244 244 246 238
299 306 316 321 331 335 342 344 344 353 357 356 351 350 355 1 3 2 358 355 351 347 344 341 334 322 316 314 314 319 301 267 251 244 240 243 251 252 251 245 243 243 242
Height
5859 5858 5857 5855 5854 5852 5851 5849 5848 5847 5846 5845 5844 5843 5843 5842 5842 5841 5841 5841 5841 5840 5839 5839 5838 5836 5835 5834 5833 5832 5831 5831 5830 5830 5830 5830 5830 5830 5830 5831 5831 5832 5833
5853 5852 5851 5849 5848 5846 5845 5843 5841 5841 5840 5839 5838 5838 5837 5837 5837 5836 5835 5835 5835 5834 5833 5832 5831 5830 5829 5828 5827 5826 5825 5824 5824 5824 5823 5823 5824 5824 5824 5824 5825 5826 5826
5846 5845 5844 5843 5842 5840 5839 5837 5835 5835 5834 5833 5833 5833 5832 5832 5831 5830 5830 5829 5828 5828 5827 5826 5825 5824 5823 5822 5821 5819 5818 5817 5817 5817 5817 5817 5817 5817 5817 5817 5818 5819 5820
5840 5839 5838 5837 5836 5835 5833 5831 5829 5829 5828 5827 5827 5827 5826 5825 5825 5824 5823 5823 5822 5821 5820 5820 5818 5817 5816 5815 5814 5813 5811 5811 5810 5810 5810 5811 5811 5811 5811 5811 5811 5812 5813
5834 5833 5832 5831 5829 5828 5827 5826 5824 5823 5822 5821 5820 5820 5820 5819 5818 5817 5817 5816 5816 5815 5814 5813 5811 5810 5809 5808 5806 5805 5804 5803 5804 5804 5804 5803 5803 5803 5804 5804 5805 5805 5806
5828 5827 5826 5824 5823 5821 5820 5819 5818 5817 5816 5815 5814 5813 5813 5812 5811 5811 5810 5809 5809 5808 5807 5806 5804 5803 5802 5800 5799 5798 5797 5797 5797 5797 5796 5796 5796 5796 5796 5797 5797 5798 5799
5821 5820 5819 5817 5816 5815 5814 5813 5812 5811 5810 5809 5807 5807 5806 5805 5804 5803 5803 5802 5801 5800 5800 5798 5797 5796 5794 5793 5792 5790 5790 5789 5789 5789 5789 5789 5788 5789 5789 5789 5790 5791 5792
5814 5813 5812 5811 5810 5809 5808 5807 5806 5805 5804 5802 5801 5800 5799 5798 5797 5796 5795 5795 5794 5793 5792 5791 5789 5788 5787 5785 5784 5783 5782 5782 5782 5782 5781 5781 5781 5781 5781 5782 5783 5784 5785
5808 5807 5806 5805 5804 5803 5802 5801 5800 5798 5797 5796 5795 5793 5792 5790 5789 5789 5788 5787 5786 5785 5784 5783 5782 5780 5779 5778 5777 5776 5775 5775 5774 5774 5774 5774 5774 5774 5774 5774 5775 5777 5778
5802 5801 5799 5798 5797 5797 5796 5795 5793 5792 5791 5789 5788 5786 5785 5783 5782 5781 5780 5780 5779 5778 5776 5775 5774 5773 5772 5770 5769 5768 5767 5767 5767 5767 5767 5767 5767 5767 5767 5768 5768 5769 5771
5796 5795 5793 5792 5791 5790 5789 5788 5787 5785 5784 5782 5780 5779 5778 5776 5775 5774 5773 5772 5771 5770 5769 5768 5767 5766 5765 5763 5762 5761 5760 5760 5760 5760 5760 5760 5760 5760 5760 5761 5761 5762 5763
5790 5788 5787 5786 5785 5784 5783 5781 5780 5778 5776 5775 5773 5772 5771 5769 5768 5767 5766 5765 5764 5763 5762 5761 5760 5759 5758 5756 5755 5754 5753 5753 5753 5753 5753 5753 5753 5753 5753 5754 5755 5756 5757
5785 5783 5781 5780 5779 5778 5776 5775 5773 5771 5768 5767 5765 5764 5764 5763 5761 5760 5759 5758 5757 5756 5755 5754 5753 5752 5751 5749 5748 5748 5747 5746 5746 5746 5747 5747 5747 5747 5747 5748 5749 5750 5751
5780 5778 5776 5775 5773 5772 5770 5768 5766 5764 5762 5760 5759 5758 5757 5756 5755 5753 5752 5751 5750 5749 5748 5747 5746 5745 5744 5743 5742 5741 5740 5740 5740 5740 5740 5741 5741 5741 5741 5742 5743 5744 5745
5776 5774 5771 5770 5768 5766 5765 5763 5761 5758 5756 5755 5753 5752 5751 5749 5748 5747 5745 5744 5744 5742 5741 5740 5739 5739 5738 5736 5735 5735 5734 5734 5734 5734 5734 5735 5735 5735 5735 5736 5737 5738 5739
5771 5769 5767 5765 5762 5761 5759 5757 5755 5753 5751 5749 5748 5747 5745 5743 5742 5741 5739 5738 5737 5736 5735 5734 5733 5732 5732 5731 5729 5729 5728 5728 5728 5728 5728 5729 5729 5729 5730 5730 5731 5732 5733
5766 5764 5762 5760 5758 5756 5754 5752 5750 5748 5746 5744 5743 5742 5740 5738 5736 5735 5733 5732 5731 5730 5728 5728 5727 5726 5726 5725 5724 5723 5722 5722 5722 5722 5723 5723 5723 5724 5724 5724 5725 5726 5727
5761 5759 5757 5755 5753 5751 5750 5748 5746 5744 5742 5740 5738 5737 5735 5733 5731 5729 5728 5726 5725 5723 5722 5721 5721 5720 5720 5719 5718 5718 5717 5717 5717 5717 5717 5718 5718 5718 5719 5719 5720 5720 5721
5757 5755 5753 5751 5749 5747 5746 5744 5742 5740 5738 5736 5734 5732 5731 5729 5727 5725 5723 5721 5719 5718 5717 5716 5715 5714 5714 5713 5713 5713 5712 5712 5712 5712 5712 5713 5713 5713 5714 5714 5714 5715 5716
5753 5751 5749 5748 5746 5744 5742 5740 5738 5736 5734 5732 5730 5729 5727 5725 5723 5721 5719 5717 5715 5714 5712 5711 5710 5710 5709 5709 5708 5708 5708 5708 5708 5708 5708 5708 5709 5709 5709 5710 5710 5710 5712
5749 5747 5746 5744 5742 5740 5738 5736 5734 5732 5731 5729 5727 5725 5724 5722 5720 5718 5715 5713 5712 5710 5709 5708 5707 5706 5705 5705 5704 5704 5704 5704 5704 5704 5705 5705 5705 5705 5705 5706 5706 5707 5707
5746 5744 5743 5741 5739 5737 5735 5733 5731 5729 5727 5726 5724 5723 5721 5719 5717 5715 5713 5711 5709 5708 5706 5705 5704 5703 5702 5702 5701 5701 5701 5701 5701 5701 5702 5702 5702 5702 5702 5703 5703 5704 5704
5743 5742 5740 5738 5737 5734 5732 5730 5729 5727 5725 5724 5722 5721 5719 5717 5715 5713 5711 5709 5707 5706 5704 5703 5702 5700 5700 5699 5699 5698 5698 5698 5699 5699 5699 5700 5700 5700 5700 5701 5701 5701 5702
5740 5739 5737 5736 5735 5733 5731 5728 5727 5725 5724 5722 5721 5719 5717 5716 5714 5712 5710 5708 5706 5704 5703 5701 5700 5699 5698 5698 5697 5696 5696 5696 5697 5697 5697 5698 5698 5698 5698 5699 5699 5700 5700
5737 5736 5735 5734 5733 5731 5729 5728 5726 5724 5723 5721 5720 5718 5716 5714 5713 5711 5709 5707 5705 5703 5702 5700 5699 5698 5697 5697 5696 5695 5695 5695 5695 5695 5696 5696 5697 5697 5697 5698 5698 5698 5699
5735 5734 5734 5733 5731 5730 5728 5727 5725 5724 5722 5721 5719 5718 5716 5714 5712 5711 5709 5707 5705 5703 5701 5700 5699 5698 5697 5696 5695 5695 5694 5694 5694 5695 5695 5695 5696 5696 5697 5697 5697 5698 5698